WORLDVIEW-1 (WV-1)

Last updated on Thu Jul 03 2025 00:02:29 GMT+0000 (Coordinated Universal Time)

1 32060U 07041A 25183.28643066 .00005113 00000+0 21350-3 0 9990 2 32060 97.3795 303.1344 0001722 44.2252 315.9123 15.24079774989626
UTC large
Height (km)
Speed (km/s)
/
Latitude / Longitude
Inclination (degrees)
Orbital Period (minutes)
Azimuth
Elevation
Range (km)
Doppler Factor

Next 0 passes for location: London (51.5072 / 0.1276)

Sorry there are no passes over London.